Regional Weather Roundup
Issued by NWS Sioux Falls, SD

Home | Current Version | Previous Version | Text Only | Print | Product List | Glossary Off
Versions: 1 2 3 4 5 6 7 8 9 10 11 12 13 14 15 16 17 18 19 20 21 22 23 24 25 26 27 28 29 30 31 32 33 34 35 36 37 38 39 40 41 42 43 44 45 46 47 48 49 50

000
ASUS43 KFSD 220702
RWRFSD

WEATHER ROUNDUP FOR SE SOUTH DAKOTA/SW MINNESOTA/NW IOWA
NATIONAL WEATHER SERVICE SIOUX FALLS SD
200 AM CDT TUE MAY 22 2018

NOTE: "FAIR" INDICATES FEW OR NO CLOUDS BELOW 12,000 FEET WITH NO
SIGNIFICANT WEATHER AND OR OBSTRUCTIONS TO VISIBILITY.


SDZ038>040-050-052>070-220800-
SOUTHEAST SOUTH DAKOTA

CITY           SKY/WX    TMP DP  RH WIND       PRES   REMARKS
BROOKINGS      CLEAR     53  53 100 SE3       30.00S FOG
CHAMBERLAIN    CLEAR     57  55  95 SE6       29.94S
HURON          CLEAR     55  53  93 SE8       29.96F
MADISON        FAIR      54  54 100 S6        30.00S FOG
MITCHELL       CLEAR     56  54  93 SE6       29.97S
SIOUX FALLS    CLEAR     52  52 100 SE3       29.99S FOG
WINNER         FAIR      63  55  75 S10       29.93S
YANKTON        PTCLDY    57  56  96 E5        29.98S FOG
$$

MNZ071-072-080-081-089-090-097-098-220800-
SOUTHWEST MINNESOTA

CITY           SKY/WX    TMP DP  RH WIND       PRES   REMARKS
FAIRMONT       FOG       56  55  97 CALM      30.01S VSB 1/4
JACKSON        FOG       55  55 100 CALM      30.02S VSB 1/4
LUVERNE        FOG       52  50  93 CALM      30.01S VSB<1/4
MARSHALL       CLEAR     54  53  97 SW7       30.00S
MONTEVIDEO       N/A     54  54 100 S7        30.00S FOG
PIPESTONE      FOG       54  54 100 SE3       30.01R VSB<1/4
REDWOOD FALLS  MOCLDY    57  57 100 E5        30.00S FOG
TRACY          CLEAR     56  56 100 S6        30.00S FOG
WINDOM         HAZE      54  39  58 S3        30.01R VSB<1/4
WORTHINGTON    FOG       55  55 100 SE6       30.02R VSB 1/4
$$

IAZ001>003-012>014-020>022-031-032-NEZ013-014-SDZ071-220800-
NORTHWEST IOWA

CITY           SKY/WX    TMP DP  RH WIND       PRES   REMARKS
CHEROKEE       FOG       53  53 100 CALM      30.01R VSB 1/4
DENISON        CLOUDY    55  55 100 CALM      30.02R
ESTHERVILLE    FOG       54  54 100 SW5       30.00S VSB 1/4
ORANGE CITY    CLEAR     57  55  94 E3        30.00S FOG
SHELDON        FOG       55  55 100 SE7       29.99S VSB<1/4
SIOUX CITY     CLOUDY    55  53  93 E5        29.99S
SPENCER        FOG       57  56  96 CALM      30.01S VSB 1/4
STORM LAKE     FOG       55  55 100 SE5       30.01S VSB<1/4
$$

ABBREVIATIONS USED IN REMARKS
   TC - TEMPERATURE IN CELSIUS
  WCI - WIND CHILL INDEX
   HX - HEAT INDEX
  VSB - VISIBILITY





USA.gov is the U.S. government's official web portal to all federal, state and local government web resources and services.